Showing default

SBIRS GEO 6 (USA 336), 53355

Orbit data source: Space-Track

SBIRS GEO 6 (USA 336), 53355 is a payload satellite owned by USSF (US) in GEO that was launched on Thu, 04 Aug 2022 UTC via an ATLAS V 421 launch vehicle from the Air Force Eastern Test Range (AFETR). Payload-class satellites include a variety of spacecraft equipped with specific instruments for various scientific and technological missions. These include communications satellites like Starlink; space stations such as the ISS; scientific satellites like the Hubble; Earth observation satellites from companies like Planet Labs, Umbra, and HawkEye 360; GPS; miniature CubeSats for education and research; and military/defense satellites.

Not visible in the next 10 days
Identifier
53355, 2022-092A
Orbit
GEO
Country
Flag of USUS
Related business
Manufacturer
LMSS
Mission
Operational Defense Early Warn
Bus & Motor
A2100, LEROS 1C?
Mass
~4,500 kg wet, ~2,500 kg dry
Launch date (UTC)
2022-08-04 (4 years ago)
Launch vehicle
ATLAS V 421
Launch site
Air Force Eastern Test Range (AFETR)
Object type
Payload
Rocket body
Debris
Shape & HBR
Box + 2 Pan, 12.5 m
Radar Cross Section
33.213 m², Large (>1 m²)

Expand to show TLE details & history
Last TLE update: 10 hours ago

TLE from 10 hours ago
0 SBIRS GEO 6 (USA 336)
1 53355U 22092A   26093.77597574 -.00000297  00000-0  00000+0 0  9995
2 53355   3.3858 316.2958 0002247  54.1754 239.9648  1.00272382 13487
Epoch: 2026-04-03T18:37Z
TLE epoch observation values (Epoch: 2026-04-03T18:37:24.303Z)
Latitude
-3.07498°
Longitude
139.0112°
Altitude
35,791.153 km
Speed
3.074 km/s
True Right ascension
16h 41m 52s
True Declination
-3° 04' 19"
Sunlit
Object was in daylight at epoch
Visualization orbit readout
Latitude
Unknown
Longitude
Unknown
Altitude
Unknown
Speed
Unknown
Apparent Right ascension
Unknown
Apparent Declination
Unknown
Sunlit
N/A
Visualization observer readout
Local Sidereal Time
10:39:29
Azimuth
Unknown
Elevation
Unknown
Doppler factor
Unknown
Orbital elements
Apogee altitude
35,796.967 km
Perigee altitude
35,778.018 km
Semi-major axis
42,165.63 km
Eccentricity
0.00022
Inclination
3.3858°
RAAN
316.2958°
Arg. of periapsis
54.1754°
True anomaly
239.94251°
Mean anomaly
239.9648°
Eccentric anomaly
239.95366°
Mean motion
0.25067 °/min
Orbital period
1,436.14 mins
BSTAR
0
Loading maneuver chart data...
Computing Atmospheric mass density...
Loading historical data...
Loading historical data...
Loading historical data...
Loading historical data...
Loading historical data...
Loading historical data...
Loading historical data...
Other satellites on launch #92 in the year 2022 (2022-08-04 UTC)

Documentation

Showing up to 5 results
|